User: anonymous   Login
Location: Unspecified
(0.0000°N, 0.0000°E)
Time: 17:39:47
(UTC+00:00)
Language:

RESURS P1 - Orbit

View from above orbital plane
View from above orbital plane
View from above satellite
View from above satellite

Ground track
Ground track

The orbit data is extracted from the following two-line orbital elements,

1 39186U 13030A   18344.57170545  .00003285  00000-0  10588-3 0  9991
2 39186  97.2974  49.6559 0015503 292.4285 203.0012 15.32787667305469
Epoch (UTC): 10 December 2018 13:43:15
Eccentricity: 0.0015503
inclination: 97.2974°
perigee height: 457 km
apogee height: 478 km
right ascension of ascending node: 49.6559°
argument of perigee: 292.4285°
revolutions per day: 15.32787667
mean anomaly at epoch: 203.0012°
orbit number at epoch: 30546

The dashed part of the orbit path shows where the satellite is in the earth's shadow,  

DLR